SCP
0 0 0 0 0 0 0 0 0 0 0 0 0 0 0 0 0 0 0 1 1 1 1 1 1 1 0 0 0 0 0 0 0 0 0 0 0 0 0 0 0 0 0 0 0 0 0 0 0
0 0 0 0 0 0 0 0 0 0 0 0 0 0 0 0 0 0 0 1 1 1 1 1 1 1 1 0 0 0 0 0 0 0 0 0 0 0 0 0 0 0 0 0 0 0 0 0 0
1 0 0 0 0 0 0 0 0 0 0 0 0 0 0 0 0 0 1 1 1 1 1 1 1 1 1 1 0 0 0 0 0 0 0 0 0 0 0 0 0 0 0 0 0 0 0 0 0
1 0 0 0 0 0 0 0 0 0 0 0 0 0 0 0 0 0 1 1 1 1 1 1 1 1 1 1 0 0 0 0 0 0 0 0 0 0 0 0 0 0 0 0 0 0 0 0 0
1 0 0 0 0 0 0 0 0 0 0 0 0 0 0 1 1 1 1 1 1 1 1 1 1 1 1 1 0 0 0 0 0 0 0 0 0 0 0 0 0 0 0 0 0 0 0 0 0
1 0 0 0 0 0 0 0 0 0 0 0 0 0 1 1 1 1 1 1 1 1 1 1 1 1 1 1 1 0 0 0 0 0 0 0 0 0 0 0 0 0 0 0 0 0 0 0 0
0 0 0 0 0 0 0 0 0 0 0 0 0 0 1 1 1 1 1 1 1 1 1 1 1 1 1 1 1 1 0 0 0 0 0 0 0 0 0 0 0 0 0 0 0 0 0 0 0
1 0 0 0 0 0 0 0 0 0 0 0 0 1 1 1 1 1 1 1 1 1 1 1 1 1 1 1 1 0 0 0 0 0 0 0 0 0 0 0 0 0 0 0 0 0 0 0 0
1 0 0 0 0 0 0 0 0 0 0 0 0 1 1 1 1 2 2 2 1 1 1 1 1 1 1 0 0 0 0 0 0 0 0 0 0 0 0 0 0 0 0 0 0 0 0 0 0
0 0 0 0 0 0 0 0 0 0 0 0 0 0 1 1 1 1 1 1 1 1 1 1 1 1 0 0 0 0 0 0 0 0 0 0 0 0 0 0 0 0 0 0 0 0 0 0 0
0 0 0 0 0 0 0 0 0 0 0 0 0 0 0 1 1 1 1 1 1 1 1 1 1 1 1 0 0 0 0 0 0 0 0 0 0 0 0 0 0 0 0 0 0 0 0 0 0
0 0 0 0 0 0 0 0 0 0 0 0 0 0 0 0 1 1 1 1 1 1 1 1 1 1 1 1 0 0 0 0 0 0 0 0 0 0 0 0 0 0 0 0 0 0 0 0 0
0 0 0 0 0 0 0 0 0 0 0 0 0 0 0 0 0 0 1 1 1 1 1 1 1 1 1 1 0 0 0 0 0 0 0 0 0 0 0 0 0 0 0 0 0 0 0 0 0
0 0 0 0 0 0 0 0 0 0 0 0 0 0 0 0 0 0 1 1 1 1 1 1 1 1 1 1 1 0 0 0 0 0 0 0 0 0 0 0 0 0 0 0 0 0 0 0 0
0 0 0 0 0 0 0 0 0 0 0 0 0 0 0 0 0 0 1 1 1 1 1 1 1 1 1 1 1 1 1 1 1 1 1 1 0 0 0 0 0 0 0 0 0 0 0 0 0
0 0 0 0 0 0 0 0 0 0 0 0 0 0 0 0 0 0 0 0 0 0 1 1 1 1 1 1 1 1 1 1 1 1 1 1 1 1 1 1 1 0 0 0 0 0 0 0 0
0 0 0 0 0 0 0 0 0 0 0 0 0 0 0 0 0 0 0 0 0 0 0 1 1 1 1 1 1 1 1 1 1 1 1 1 1 1 1 1 1 1 0 0 0 0 0 0 0
0 0 0 0 0 0 0 0 0 0 0 0 0 0 0 0 0 0 0 0 0 0 0 0 1 1 1 1 2 2 2 2 1 1 1 1 1 1 1 1 1 1 1 1 1 0 0 0 0
0 0 0 0 0 0 0 0 0 0 0 0 0 0 0 0 0 0 0 0 0 0 0 0 0 1 1 1 2 2 2 2 2 2 2 1 1 1 1 2 2 2 1 1 1 1 0 0 0
0 0 0 0 0 0 0 0 0 0 0 0 0 0 0 0 0 0 0 0 0 0 0 0 0 0 0 1 1 2 2 2 2 2 2 2 2 1 1 2 2 2 2 1 1 1 1 0 0
0 0 0 0 0 0 0 0 0 0 0 0 0 0 0 0 0 0 0 0 0 0 0 0 0 0 0 0 1 1 2 2 2 2 2 2 2 2 1 1 2 2 2 2 1 1 1 1 1
0 0 0 0 0 0 0 0 0 0 0 0 0 0 0 0 0 0 0 0 0 0 0 0 0 0 0 0 0 1 1 1 1 2 2 2 2 1 1 1 2 2 2 2 2 2 1 1 1
0 0 0 0 0 0 0 0 0 0 0 0 0 0 0 0 0 0 0 0 0 0 0 0 0 0 0 0 0 0 0 1 1 1 1 1 1 1 1 1 2 2 2 3 3 2 2 2 2
0 0 0 0 0 0 0 0 0 0 0 0 0 0 0 0 0 0 0 0 0 0 0 0 0 0 0 0 0 0 0 0 0 0 0 1 1 1 1 2 2 2 2 3 3 3 3 3 3
0 0 0 0 0 0 0 0 0 0 0 0 0 0 0 0 0 0 0 0 0 0 0 0 0 0 0 0 0 0 0 0 0 0 0 0 0 1 1 1 2 2 2 3 4 4 4 3 4
0 0 0 0 0 0 0 0 0 0 0 0 0 0 0 0 0 0 0 0 0 0 0 0 0 0 0 0 0 0 0 0 0 0 0 0 0 0 1 1 1 1 2 2 3 4 4 4 4
0 0 0 0 0 0 0 0 0 0 0 0 0 0 0 0 0 0 0 0 0 0 0 0 0 0 0 0 0 0 0 0 0 0 0 0 0 0 0 0 1 1 1 2 3 3 4 4 3
0 0 0 0 0 0 0 0 0 0 0 0 0 0 0 0 0 0 0 0 0 0 0 0 0 0 0 0 0 0 0 0 0 0 0 0 0 0 0 0 0 1 1 2 2 3 3 3 3
0 0 0 0 0 0 0 0 0 0 0 0 0 0 0 0 0 0 0 0 0 0 0 0 0 0 0 0 0 0 0 0 0 0 0 0 0 0 0 0 0 0 1 1 1 2 2 2 2
0 0 0 0 0 0 0 0 0 0 0 0 0 0 0 0 0 0 0 0 0 0 0 0 0 0 0 0 0 0 0 0 0 0 0 0 0 0 0 0 0 0 0 1 1 2 2 2 2
Wind_Speed
11 12 9 3 3 4 8 8 0 5 3 6 7 5 7 5 6 6 4 6 16 16 15 14 14 14 14 14 14 14 13 13 12 11 9 8 7 7 8 9 10 11 13 14 14 14 13 13 12
9 11 6 3 4 6 7 7 3 4 6 5 1 3 4 1 9 8 4 9 15 16 13 13 14 14 14 15 15 14 14 13 12 10 9 8 8 9 10 11 11 13 13 14 14 13 13 12 11
8 9 4 4 6 8 7 3 6 8 5 1 3 5 2 5 7 6 6 9 14 14 12 14 14 14 15 16 15 14 14 13 11 10 9 8 10 11 12 13 13 14 13 13 13 12 11 11 10
4 3 4 6 10 11 8 4 6 6 4 2 3 3 6 6 5 7 7 9 12 13 13 13 13 14 15 15 15 14 13 12 11 10 9 9 11 13 13 14 13 13 12 12 11 11 10 9 9
3 3 7 9 12 10 6 5 5 2 4 4 3 2 7 5 9 8 7 9 11 14 14 12 13 14 14 14 14 14 13 12 11 10 9 10 11 12 13 12 12 12 11 11 10 9 8 8 7
2 3 7 11 13 11 8 4 5 3 2 2 2 1 6 6 8 7 6 7 10 14 13 12 13 13 13 13 13 13 13 12 11 9 9 9 10 11 11 11 10 10 10 9 9 8 7 6 6
4 5 10 13 12 11 10 5 6 4 4 3 1 1 8 7 5 6 6 6 10 14 13 10 9 10 12 12 11 12 12 11 10 9 8 8 9 9 9 9 9 9 9 8 8 7 6 5 4
4 4 11 14 13 10 8 6 6 5 5 0 2 3 8 6 3 4 5 5 8 10 12 10 9 8 8 8 10 11 11 11 10 9 9 9 8 8 8 7 7 7 8 8 7 7 6 5 4
4 6 12 14 12 10 5 4 6 2 4 2 2 7 8 9 6 6 6 5 4 5 8 9 9 9 9 8 9 9 10 10 10 8 10 9 5 6 6 7 7 6 7 7 7 7 6 5 4
6 10 17 13 10 9 6 4 5 5 5 4 3 8 10 9 7 6 5 4 2 1 3 4 7 7 7 8 8 6 6 7 6 6 7 5 5 6 8 10 9 7 7 7 7 7 7 5 3
8 11 13 13 5 5 4 4 3 5 6 6 7 8 8 8 6 6 6 6 5 3 1 0 2 4 4 4 6 4 4 6 6 7 9 6 5 4 5 4 5 5 5 4 5 5 4 5 4
9 12 14 9 1 2 3 1 3 5 1 5 7 6 6 6 6 6 6 7 8 7 5 3 2 2 2 4 4 4 4 5 5 6 8 6 3 4 5 5 5 5 4 5 5 4 6 5 4
13 9 9 3 4 2 3 4 4 5 3 6 6 4 1 2 4 5 5 5 7 8 8 7 5 4 3 2 2 3 4 5 5 5 6 6 4 4 4 4 5 6 5 5 5 5 5 5 5
9 8 4 5 4 1 2 5 5 4 3 4 3 2 3 3 2 3 4 4 5 6 8 9 8 7 5 4 3 2 2 3 4 5 6 6 5 4 4 4 4 5 5 5 5 6 4 4 3
6 6 4 4 5 3 2 7 8 6 3 4 5 5 5 3 1 2 3 3 3 4 6 8 9 8 8 7 6 4 3 3 3 4 6 7 6 6 5 4 4 4 5 5 5 6 4 4 4
5 6 7 8 8 7 6 8 9 9 7 6 6 6 6 6 5 3 2 2 1 1 2 4 6 7 8 8 7 5 4 4 3 3 5 7 8 7 6 5 5 5 5 4 4 4 3 4 4
6 9 11 9 12 8 8 6 7 7 8 6 6 6 6 4 4 3 1 1 1 2 2 2 3 5 6 6 6 6 5 5 4 4 4 5 7 8 7 5 5 6 5 5 5 4 4 4 4
13 12 14 11 11 10 10 7 7 3 3 5 6 7 5 3 2 1 2 2 2 2 3 3 2 3 3 3 4 4 5 5 5 4 5 6 6 7 7 6 7 6 5 6 5 5 5 4 5
11 13 12 10 7 9 9 9 9 6 6 6 6 5 3 2 2 3 3 3 3 3 3 3 4 3 2 1 2 3 4 4 5 6 7 7 7 7 7 6 7 7 6 7 7 6 6 5 4
4 11 11 7 6 5 5 9 9 7 6 5 4 4 2 1 3 4 2 2 3 4 4 4 4 4 4 2 1 2 2 3 5 5 7 8 8 8 6 7 6 6 6 7 8 7 6 5 5
6 6 7 9 5 2 3 7 11 6 4 3 3 2 0 1 3 4 4 5 5 6 6 5 6 5 5 5 3 3 2 2 2 3 4 7 8 8 8 8 7 7 7 7 8 8 9 7 6
6 3 4 10 6 5 7 5 9 10 7 5 4 4 3 3 4 4 4 5 5 4 4 5 5 5 4 4 3 3 3 3 4 3 3 4 6 8 9 9 9 9 8 8 8 9 7 8 6
3 3 5 6 5 3 6 4 4 9 8 8 6 6 5 4 4 5 4 3 4 4 3 4 5 4 4 4 4 3 4 4 4 4 5 5 4 6 7 8 9 9 8 9 9 9 9 8 8
5 7 6 1 1 4 8 7 5 7 11 10 8 7 6 5 4 4 4 3 3 4 4 4 5 4 5 5 5 4 4 5 5 6 5 4 4 4 5 6 7 8 8 9 10 10 10 10 10
5 7 4 3 4 6 5 6 5 7 11 11 10 8 6 5 4 4 4 4 4 4 4 5 5 5 6 6 6 6 5 5 5 5 5 5 4 4 4 4 5 6 7 8 9 9 10 11 10
5 4 2 5 6 4 1 5 1 7 10 10 9 7 5 4 4 4 3 3 3 4 5 5 6 5 6 6 6 6 6 4 4 5 5 5 4 4 5 5 4 5 5 6 7 8 9 8 10
4 3 1 2 2 2 5 4 4 5 7 8 7 6 6 5 5 4 3 4 4 4 5 5 5 5 6 6 6 6 6 6 6 6 5 5 5 5 6 6 5 5 4 4 5 5 7 6 7
0 1 2 2 2 3 6 7 8 11 9 8 8 7 6 5 4 4 3 4 3 3 4 5 5 6 6 6 6 6 6 7 7 6 7 7 7 7 8 7 6 6 5 4 3 3 3 3 3
4 2 3 3 3 2 2 1 1 14 12 9 7 6 5 5 4 4 3 3 3 3 4 4 5 6 6 6 6 6 6 7 7 7 8 8 8 8 8 8 8 8 7 6 4 4 3 1 2
4 5 5 3 3 3 2 2 2 9 9 7 6 6 5 5 5 4 3 2 3 3 4 4 5 5 6 6 6 7 7 7 8 8 8 8 8 8 9 8 9 9 9 8 7 6 6 5 5
Wind_Direction
295 275 266 265 250 233 242 249 139 71 27 37 23 344 332 349 33 92 206 120 118 127 134 138 135 138 138 134 128 124 120 116 111 105 98 90 86 89 102 108 104 102 99 93 90 88 86 85 84
293 282 273 250 242 236 234 231 143 106 67 52 21 267 281 59 91 109 123 110 123 127 137 137 133 137 137 134 131 127 122 118 113 107 101 95 94 97 101 108 105 102 98 95 94 91 89 87 86
278 276 260 236 234 243 252 197 128 95 81 215 211 209 236 38 69 93 113 126 124 129 134 128 133 135 136 135 132 129 125 120 115 111 105 100 100 100 99 103 103 101 100 100 98 95 91 88 87
262 245 249 246 238 236 259 56 74 109 141 214 275 183 81 35 49 95 124 134 128 127 120 129 130 132 134 135 134 132 129 125 121 118 113 109 104 100 99 103 104 104 105 105 104 99 93 90 89
261 248 231 239 244 249 244 116 102 170 167 162 279 87 81 73 85 110 143 139 131 122 122 131 128 132 135 137 136 136 134 132 129 127 123 119 112 106 104 107 108 110 111 112 111 106 99 94 91
212 240 231 230 235 242 252 152 131 241 208 141 258 167 92 94 105 128 135 135 121 118 124 128 130 133 136 138 141 142 139 138 137 135 132 128 123 120 116 115 116 118 119 120 118 113 106 99 95
200 220 234 236 239 232 231 188 159 217 243 212 305 26 107 90 93 125 135 126 116 121 126 134 136 136 138 142 144 146 144 143 142 140 132 125 125 129 131 130 131 131 130 128 127 123 118 112 107
201 232 239 240 243 241 225 188 165 209 244 68 17 8 104 108 93 89 86 83 110 123 132 143 148 149 148 147 149 150 149 149 147 141 132 128 131 137 143 145 144 144 143 140 138 135 132 128 127
200 222 230 231 241 252 245 186 165 167 294 288 94 77 97 110 100 82 69 48 69 108 135 150 156 159 162 162 156 152 153 154 151 146 148 148 160 161 163 162 150 154 154 153 152 151 148 143 148
192 217 225 233 249 259 258 225 170 158 230 241 152 111 116 125 129 129 132 127 110 108 116 140 155 161 167 161 151 163 166 163 172 167 167 186 198 179 169 151 153 163 166 167 169 169 171 174 174
198 222 226 234 272 311 258 211 192 189 210 216 185 143 131 135 146 155 159 160 169 186 169 131 150 154 155 140 158 172 172 171 193 185 178 200 209 159 143 148 153 167 177 183 178 180 207 214 186
211 223 231 230 125 327 310 233 218 229 241 63 70 86 120 156 166 170 171 170 169 175 181 200 221 180 169 160 175 175 172 172 186 196 185 193 196 169 162 166 170 180 189 194 180 199 215 215 180
225 229 218 160 110 259 288 271 248 227 111 81 74 64 109 176 167 165 172 178 168 170 176 187 201 204 203 202 202 195 185 176 183 191 194 188 184 185 185 182 176 185 188 190 185 204 206 195 197
212 234 205 134 143 220 241 264 252 239 150 135 144 198 222 215 186 163 171 191 182 177 181 183 192 198 195 204 221 228 223 190 186 183 195 199 192 190 194 194 189 190 191 182 185 202 203 188 188
197 210 187 187 171 178 213 250 243 236 213 194 202 213 215 220 211 224 204 202 205 192 188 184 189 193 193 199 208 219 229 223 205 193 192 199 203 198 197 200 199 195 194 190 187 202 201 185 181
184 190 192 195 192 185 191 235 231 221 222 231 231 228 216 203 201 217 230 224 246 247 209 196 192 192 196 197 199 205 215 225 221 211 202 203 205 203 202 202 208 198 192 191 191 198 194 186 178
178 194 200 190 189 188 194 239 247 201 199 225 242 245 239 215 196 197 219 222 253 282 276 245 205 198 203 200 198 199 202 214 223 225 220 217 213 207 203 205 208 202 198 195 194 193 186 186 189
183 193 198 201 180 194 204 228 256 166 175 234 245 241 226 210 182 89 42 23 17 349 332 318 281 232 222 208 202 198 203 208 213 222 230 231 225 217 210 207 210 207 203 202 195 191 193 189 185
187 197 202 199 164 186 214 228 240 210 190 228 248 249 229 186 123 80 47 22 10 1 346 331 325 311 288 234 213 206 211 214 215 218 225 231 233 230 221 217 213 213 213 208 198 187 197 204 172
241 198 204 143 129 171 221 235 236 227 204 212 248 261 252 98 90 84 72 55 27 17 12 355 342 335 331 320 276 231 226 222 221 220 221 222 226 230 229 223 221 219 221 218 208 200 197 198 180
236 212 189 136 118 213 263 254 228 210 199 219 243 264 123 102 101 94 75 61 47 39 22 357 347 342 339 340 341 332 315 284 260 244 229 222 222 226 227 226 224 222 222 226 220 211 204 205 200
202 218 155 129 138 202 194 253 211 185 186 198 201 189 153 119 97 82 66 56 54 47 21 352 341 334 329 331 325 310 293 279 264 257 250 241 228 225 223 223 223 223 223 226 225 221 216 205 206
159 122 106 134 193 236 188 230 237 149 178 189 181 159 132 117 111 102 84 64 59 51 18 345 336 337 346 342 326 308 294 287 293 294 281 270 255 240 231 226 224 224 225 225 225 223 221 217 212
115 96 87 106 210 246 208 205 229 188 187 170 162 146 137 130 125 116 102 77 62 45 17 349 345 350 356 349 339 324 308 307 310 306 299 291 280 265 245 235 231 227 225 225 225 225 224 224 221
157 134 138 172 202 236 199 200 255 176 160 156 152 145 138 141 137 107 79 49 37 30 12 358 3 359 1 356 348 338 331 320 309 308 306 306 300 293 279 262 247 238 232 229 226 226 228 225 223
192 193 174 188 196 183 167 222 242 101 120 127 128 130 144 151 124 105 85 58 35 28 19 9 1 360 6 360 348 345 346 341 333 330 325 317 311 306 310 302 287 271 252 241 234 231 232 230 229
172 214 344 330 293 171 206 194 101 109 123 131 141 158 172 149 126 112 88 64 40 28 20 6 3 8 10 2 354 356 357 354 345 337 335 334 335 333 336 334 328 318 298 271 251 242 236 231 233
346 171 153 162 216 243 201 189 188 176 175 169 172 175 160 140 126 109 88 72 50 35 22 18 18 14 13 6 2 10 6 0 355 2 4 358 353 355 354 353 351 350 347 341 313 285 266 241 240
166 182 217 222 263 260 249 201 8 169 170 170 168 152 139 131 117 99 84 75 63 45 34 29 24 20 16 11 11 18 15 11 14 17 10 5 7 9 9 8 10 11 9 8 11 11 15 46 60
225 204 190 196 234 221 266 304 22 139 143 146 142 137 135 123 112 106 98 83 71 56 43 37 35 27 18 16 22 28 23 22 24 21 16 16 19 18 19 20 24 24 24 24 30 34 39 55 72